sat.trackr.live / text

‹ back to catalog

STARLINK-2728

NORAD 48478 · 2021-040BC

PAYLOAD ACTIVE UNKNOWN

§ Identity

Operator
Country
US
Launch date
2021-05-09
Launch site
AFETR
Launch vehicle
Mass (kg)
RCS (m²)

Purposes: comms

External: N2YO · Heavens-Above · Gunter

§ Orbital elements

Epoch: 2026-09-19T18:38:09.434976Z

Period
94.01 min
Inclination
53.1612°
Eccentricity
0.0001049
Mean motion
15.31718978 rev/d
Perigee alt
470.0 km
Apogee alt
471.4 km
Semi-major
6,848.8 km
B*
7.7782e-5
RAAN
7.8930°
Arg perigee
83.8889°
Mean anomaly
276.2232°
Rev number
29,623

§ Raw data

STARLINK-27281 48478U 21040BC  26262.77649809  .00002051  00000+0  77782-4 0  99982 48478  53.1612   7.8930 0001049  83.8889 276.2232 15.31718978296232

JSON: /api/v1/satellites/48478 · /tle

For live sub-satellite position, see the globe view (requires WebGL).

§ Visibility from observer

Set your observer location to see the next 7 days of passes ≥ 10°. The values pass through the URL so the page stays shareable.

No JS? Fill the form by hand. The geolocation button needs JavaScript.